Wind_Speed
5 6 3 8 6 5 5 6 7 4 3 6 5 20 14 10 9 3 5 5 2 4 7 7 8 8 7 4 3 2 3 4 3 3 6 3 2 2 2 9 8 7 8 11 15
6 2 1 7 8 5 6 5 6 8 4 5 9 19 15 13 10 10 4 4 2 6 6 10 10 10 4 3 2 3 3 3 5 6 5 3 3 4 5 8 9 10 10 8 9
8 4 3 8 10 8 9 2 3 4 7 1 16 22 15 9 9 7 6 4 2 4 6 6 9 6 6 4 2 2 3 3 3 4 3 2 6 2 7 7 2 8 11 12 14
9 9 9 9 11 10 5 2 1 1 2 6 16 21 19 1 7 5 3 2 2 5 7 10 8 6 7 6 3 4 1 1 2 2 2 4 7 7 12 14 12 13 12 12 12
11 11 9 9 10 9 9 2 1 3 3 12 18 22 10 7 6 6 3 3 2 3 7 6 9 5 7 6 5 3 4 1 0 3 7 8 9 11 15 13 9 7 7 10 12
12 7 7 7 6 9 8 2 1 2 3 22 21 19 8 9 9 6 2 4 4 3 5 3 3 3 7 5 2 3 1 1 2 2 4 6 7 4 1 1 4 6 11 13 15
6 7 9 10 11 13 8 3 3 2 6 25 19 22 13 6 9 6 6 7 7 6 6 7 5 1 6 5 2 2 2 4 4 2 3 6 11 10 10 4 9 14 13 13 11
11 10 7 8 12 9 5 3 4 7 19 21 25 28 6 7 8 7 9 11 12 14 12 10 9 7 3 6 4 3 3 5 7 3 3 3 9 6 1 8 16 17 14 12 11
13 11 8 4 3 4 4 5 6 6 16 23 23 18 4 8 5 6 6 10 10 9 9 6 4 3 3 3 3 6 5 5 7 3 1 7 10 10 10 14 16 15 12 10 10
15 15 10 4 4 8 9 10 15 11 24 27 18 9 4 2 4 6 6 4 5 5 4 2 2 2 2 3 2 4 4 3 4 5 6 13 18 16 15 14 13 9 9 11 12
12 16 14 13 15 20 17 14 6 5 13 7 12 18 10 5 0 6 4 2 2 2 2 1 3 4 5 4 3 2 2 5 6 5 10 9 15 18 14 7 4 6 11 14 15
14 15 16 23 26 17 11 6 4 7 15 21 18 14 6 3 7 8 4 1 3 3 4 3 4 5 5 3 2 3 4 5 6 1 10 13 21 17 2 2 3 7 13 15 17
10 12 16 17 13 18 19 12 7 3 6 8 8 8 4 5 6 9 7 1 4 6 2 2 8 4 0 2 3 1 3 5 5 14 12 10 9 4 7 5 3 7 12 13 14
10 14 19 18 13 9 8 4 3 3 4 9 5 7 6 3 5 7 6 4 2 5 6 6 3 0 0 1 1 1 1 5 8 10 4 10 5 6 2 4 5 11 14 10 13
13 9 2 3 22 5 4 3 8 3 5 8 5 2 4 5 2 6 7 2 6 5 2 3 4 2 1 1 2 4 4 8 8 5 7 5 3 3 2 7 6 14 11 10 11
10 10 20 11 6 5 3 5 3 1 6 3 4 3 5 9 5 1 1 3 0 4 5 4 1 2 3 0 4 4 5 3 3 2 3 1 3 5 3 7 11 12 8 10 11
9 7 4 5 1 5 5 3 2 7 3 4 5 5 8 6 5 4 5 7 3 3 4 1 2 2 2 4 5 5 4 2 2 2 2 4 2 10 9 4 8 10 8 8 9
5 2 1 1 6 7 5 1 10 2 5 3 3 7 5 5 5 5 3 5 6 3 2 1 3 5 6 3 5 4 4 2 3 4 6 3 5 1 1 2 4 5 4 6 9
3 2 3 7 3 3 3 6 4 4 5 6 3 5 4 4 3 1 5 3 3 4 1 1 1 2 3 2 4 3 2 3 3 4 4 5 6 12 5 5 6 5 5 7 8
1 2 6 6 5 5 4 7 4 3 6 3 3 2 3 2 2 3 1 1 3 1 2 2 0 3 3 3 4 3 1 2 3 4 5 5 9 5 3 6 5 5 5 4 6
3 2 7 5 4 5 4 6 6 4 2 2 2 4 3 3 1 2 2 2 1 2 2 3 1 3 2 7 6 4 3 4 3 4 4 6 3 4 4 2 2 2 1 3 4
3 1 8 3 2 3 5 4 2 4 3 1 1 3 2 1 2 1 1 0 4 3 1 2 3 4 6 3 2 6 10 9 5 5 7 8 8 6 4 3 4 2 3 4 4
2 2 4 3 4 4 4 4 1 3 3 3 2 2 1 2 2 2 2 2 4 3 3 2 2 4 2 3 4 6 10 13 11 6 13 9 5 5 5 6 7 8 7 7 7
2 2 3 3 3 8 7 3 4 2 1 1 0 2 3 3 3 1 2 2 3 3 4 1 3 7 8 11 10 10 8 11 14 10 13 17 22 14 11 8 9 12 11 11 10
3 3 3 1 2 3 1 3 5 4 3 3 3 6 3 2 2 3 2 3 5 6 4 3 6 8 16 19 18 20 20 19 20 20 17 22 22 19 13 10 12 13 13 13 13
2 1 2 2 0 2 2 3 4 2 3 3 4 1 3 4 2 3 3 4 4 7 8 5 4 8 10 18 15 17 18 19 20 22 24 25 28 22 20 17 14 12 14 15 14
3 1 3 3 1 3 1 4 6 4 4 3 3 4 6 7 4 6 8 9 7 8 10 7 4 4 7 9 16 16 14 18 14 13 15 17 21 16 13 8 11 11 13 14 14
Wind_Direction
88 120 245 170 153 130 98 68 51 31 205 255 230 166 159 150 131 161 81 66 55 138 121 138 131 140 148 112 35 301 238 191 122 174 103 137 200 116 329 272 278 269 283 300 314
65 33 216 174 151 112 93 48 29 32 12 246 217 154 153 142 138 82 10 61 82 139 162 159 139 153 124 107 57 277 261 87 21 54 103 116 308 354 285 270 269 261 258 281 304
51 27 72 150 166 116 55 302 345 339 13 109 163 149 144 171 128 72 51 26 73 126 157 149 137 126 112 145 88 122 336 114 99 50 15 317 281 303 281 274 18 328 327 319 311
59 61 74 109 134 134 127 20 9 261 2 141 138 144 135 124 157 33 7 29 97 126 145 146 158 144 133 150 125 159 118 6 99 69 314 299 322 269 256 267 310 310 306 305 301
57 61 77 115 129 147 163 142 350 233 355 155 135 134 120 78 58 5 20 94 76 107 154 170 156 144 140 140 160 169 149 184 129 297 298 293 278 279 282 283 301 322 311 301 304
49 73 110 104 122 136 145 141 350 193 105 150 132 115 85 72 352 5 12 84 86 132 118 174 155 121 115 125 257 101 157 196 320 307 296 306 297 333 106 69 281 301 302 306 300
60 88 107 67 120 120 107 112 36 167 164 132 129 118 71 62 358 41 69 67 75 90 101 71 91 264 134 126 101 105 260 192 217 179 327 312 270 234 255 282 287 305 316 306 303
63 70 93 97 105 89 79 124 75 90 139 105 119 107 58 336 335 79 85 75 73 82 86 71 84 79 40 101 152 231 246 225 139 202 153 284 284 135 186 288 297 306 308 307 303
50 54 58 66 149 159 156 131 101 76 127 90 84 85 112 4 87 60 71 86 77 70 72 65 46 69 137 187 188 204 249 228 155 154 293 232 289 281 304 291 294 299 300 298 316
53 40 38 39 173 161 132 106 108 97 93 96 82 105 314 357 42 62 65 68 73 98 99 40 60 123 145 183 213 192 241 235 268 141 298 276 270 282 295 297 295 290 312 323 329
39 40 57 53 135 136 122 120 50 12 33 68 99 91 127 225 105 64 22 78 129 221 179 85 115 142 115 49 25 33 304 288 297 59 315 286 291 290 302 290 255 338 331 334 338
57 60 76 90 102 107 96 83 73 138 72 61 82 96 150 183 102 49 5 176 200 141 156 154 125 103 95 58 34 8 336 319 308 180 313 295 293 289 190 208 307 332 343 349 343
63 80 95 113 94 87 99 99 118 153 91 62 74 70 38 70 47 34 7 17 61 83 99 162 110 135 354 62 5 25 325 345 315 317 266 313 275 158 192 244 270 333 358 1 343
83 108 104 101 83 95 84 95 11 304 89 22 46 25 29 337 64 24 16 349 47 89 66 71 126 78 184 14 295 295 14 307 311 336 305 6 292 264 142 258 259 354 357 360 342
80 124 19 155 131 153 155 308 322 263 78 355 27 339 52 80 145 41 14 13 56 80 263 95 148 186 280 208 212 11 312 306 321 306 321 120 255 249 187 295 338 339 345 342 334
73 94 114 99 109 145 248 290 230 237 66 36 12 22 112 66 66 109 87 104 97 78 68 107 112 269 24 250 240 308 283 302 287 328 249 48 320 282 7 341 327 327 325 336 335
79 115 169 149 188 243 304 228 96 49 178 91 66 73 73 65 88 66 70 66 68 63 33 167 152 138 245 231 192 243 281 317 257 265 359 139 286 264 320 347 320 307 331 337 338
46 42 187 257 271 290 264 204 65 15 52 119 114 87 77 5 61 43 45 67 59 357 93 219 176 194 163 309 348 9 15 26 296 326 327 108 241 292 22 238 334 314 333 324 330
39 22 23 328 302 298 261 62 104 145 152 137 130 65 47 65 6 12 55 51 41 10 79 323 102 135 224 303 309 36 21 24 299 279 279 228 238 258 221 332 345 331 337 330 317
305 355 21 344 350 269 73 90 107 108 123 172 83 293 121 106 202 205 124 105 144 212 296 121 255 186 141 201 211 280 46 245 189 308 292 242 253 246 258 320 335 352 352 336 338
257 215 356 335 350 43 63 82 115 154 202 252 119 131 115 139 34 99 78 133 218 152 305 328 17 143 195 208 183 181 210 225 301 261 268 302 288 153 205 241 300 35 353 290 326
284 38 346 356 50 65 68 96 64 141 205 202 332 54 56 144 108 148 161 319 176 199 313 50 303 259 236 116 270 287 248 245 256 217 229 278 277 158 157 197 209 173 218 246 264
32 360 336 321 91 88 118 103 74 161 185 189 169 259 201 181 206 224 218 126 196 218 349 64 252 293 209 199 204 249 240 241 251 289 258 265 265 168 175 204 207 208 204 213 230
295 12 48 57 4 113 127 112 127 140 160 246 163 221 204 214 221 286 262 139 177 233 52 331 273 259 275 309 314 268 245 227 238 246 261 246 266 255 234 233 232 221 219 220 231
8 64 360 123 91 115 182 160 153 184 215 233 204 242 257 254 241 236 234 194 189 162 197 238 260 266 275 277 278 271 265 258 248 242 255 273 279 282 289 267 240 232 228 229 231
4 317 162 78 79 215 180 165 192 174 233 192 246 177 248 264 319 297 307 231 269 173 207 201 266 288 284 273 268 274 264 254 250 253 256 261 271 281 283 284 283 237 225 231 234
31 169 295 125 206 270 261 180 192 181 195 242 224 247 241 259 260 277 266 269 261 228 215 213 242 270 267 306 301 280 254 230 230 234 236 248 261 286 295 261 275 257 236 240 239
Height
767 767 771 772 774 776 777 778 778 778 777 777 777 779 783 787 789 790 789 792 792 791 791 794 793 793 792 793 795 794 792 787 791 792 796 801 800 802 802 801 796 795 793 792 794
767 770 769 770 773 776 777 779 778 778 777 776 778 778 784 788 789 791 797 795 794 793 794 792 792 792 793 796 797 794 793 791 796 797 798 803 806 803 805 796 795 792 791 794 796
769 771 770 769 772 774 777 780 780 778 778 776 777 779 784 788 788 794 798 798 796 796 797 794 794 792 796 795 801 799 795 801 805 807 809 808 807 807 805 799 791 795 794 795 797
771 770 770 770 773 773 779 782 781 780 782 779 779 781 785 789 791 799 800 800 798 798 798 795 795 795 797 800 805 807 808 806 811 814 813 810 809 806 801 798 793 796 796 797 796
770 770 771 774 775 778 778 782 782 782 781 781 782 786 790 790 802 803 801 800 801 799 798 796 794 795 799 803 807 804 810 813 814 815 814 810 809 807 799 794 795 797 796 795 794
772 775 777 777 776 778 780 782 782 783 784 783 787 788 793 800 806 804 803 802 802 802 801 799 797 797 801 805 804 807 811 811 815 814 814 815 806 807 792 796 796 794 792 791 791
778 779 778 778 777 778 781 784 784 783 784 783 787 786 799 810 808 806 805 804 803 802 803 804 803 799 801 808 811 811 810 810 814 815 813 816 803 800 793 794 795 789 788 789 789
780 780 780 780 779 779 782 785 787 786 786 786 789 789 809 811 808 809 808 807 805 805 807 808 807 806 805 810 812 809 809 801 810 814 816 817 797 782 788 791 790 786 786 785 784
782 780 779 779 781 783 786 787 790 789 788 790 793 797 818 815 812 811 809 809 809 809 810 811 810 810 814 808 807 804 793 797 807 813 813 813 797 783 784 787 785 784 784 781 780
784 782 779 778 780 783 787 790 792 793 794 796 801 808 821 817 815 813 813 812 811 812 812 812 812 810 809 813 809 794 797 800 800 807 811 808 798 785 782 781 783 783 779 779 779
787 785 783 779 777 786 790 792 798 803 799 801 805 810 821 819 818 817 817 814 813 812 809 816 816 816 818 816 816 812 810 806 798 808 814 796 792 783 778 783 782 782 781 780 782
790 789 788 788 788 792 794 798 803 807 813 814 816 819 820 818 816 818 817 813 810 812 815 814 822 824 825 824 821 818 815 804 805 812 810 796 790 776 782 784 784 784 782 784 785
793 793 794 795 796 796 797 803 806 806 813 824 824 821 820 817 819 821 818 816 812 813 809 807 822 828 824 826 824 817 822 818 824 812 793 797 773 779 780 782 781 779 782 790 793
796 797 797 799 804 803 804 801 807 806 805 828 822 823 821 820 822 824 823 821 817 818 816 821 829 826 825 826 826 818 822 823 820 819 807 800 793 766 770 777 779 782 787 798 798
801 800 800 800 806 806 808 805 802 804 791 829 825 827 824 822 828 825 824 818 820 822 821 829 829 828 825 830 823 821 825 822 821 824 821 802 809 766 774 775 773 790 795 800 800
804 803 803 805 806 806 806 806 808 802 827 829 826 825 822 820 824 824 824 824 826 822 821 826 830 828 823 826 827 826 822 822 818 817 815 805 805 771 768 782 789 795 800 802 800
807 806 806 806 805 804 803 803 798 810 838 830 826 820 819 823 823 823 821 822 823 833 840 822 824 828 830 823 824 822 814 809 807 808 794 809 816 788 773 786 796 801 801 802 800
807 807 807 806 804 803 803 792 810 833 823 825 821 818 820 821 821 819 816 816 821 817 822 824 829 823 825 821 819 812 813 823 821 797 794 809 808 777 779 785 793 798 801 801 799
807 808 808 806 804 803 796 807 826 819 821 820 820 815 822 819 819 817 818 819 822 821 822 826 827 823 824 820 821 815 819 821 830 810 819 791 789 773 777 779 790 794 799 801 798
809 807 807 806 803 803 800 816 819 818 820 819 813 815 814 817 816 813 816 820 820 821 818 818 822 816 818 821 821 818 819 823 825 820 804 772 771 771 779 792 786 790 797 799 795
810 802 807 805 803 800 813 816 820 821 821 817 817 816 816 817 815 815 817 819 818 820 819 816 819 815 818 814 804 823 817 820 811 806 806 785 763 770 781 782 784 787 794 797 794
809 808 807 805 806 807 816 816 822 822 823 820 817 814 812 816 814 814 812 813 815 817 815 816 814 815 803 802 805 805 801 800 804 798 796 792 779 765 771 777 782 786 790 792 792
806 808 808 806 810 814 820 821 820 821 820 819 816 815 815 813 815 814 815 815 819 820 816 816 814 814 803 806 808 811 801 802 797 800 801 796 763 764 771 774 776 779 784 787 788
809 815 807 808 812 806 811 817 818 821 819 819 816 816 815 814 814 812 814 818 819 821 826 823 816 815 807 795 799 800 797 799 799 802 789 772 762 755 758 765 769 774 775 778 778
812 819 822 814 815 814 812 813 815 816 819 819 817 816 814 811 812 813 812 814 820 822 821 820 817 811 805 799 798 795 792 791 791 791 794 770 763 752 748 749 753 759 766 768 770
812 813 820 818 820 815 820 813 814 817 817 815 818 814 815 814 811 812 812 811 808 818 818 817 817 809 813 794 786 786 781 779 779 778 775 769 760 754 747 745 746 746 755 760 762
823 823 819 824 816 815 809 813 814 816 817 816 816 815 813 811 812 811 809 807 806 808 812 813 815 815 799 783 785 773 757 763 767 763 763 764 752 745 746 749 751 749 751 754 757